This is the latest recevied weather packets stored in our database for station/object YN1GRE-3. If no packets are shown the sender has not sent any weather packets the latest 10 day(s).
| Time | Temp. | Humidity | Pressure | Rain* | Wind** | Luminosity | Snow |
|---|---|---|---|---|---|---|---|
| 1778423523 | 27.78° C | 84% | 1013 hPa | 0 mm | - | - | - |
| 1778415027 | 25° C | 80% | 1012 hPa | 0 mm | - | - | - |
| 1778375130 | 23.33° C | 70% | 1011 hPa | 0 mm | - | - | - |
| 1778374229 | 23.89° C | 70% | 1011 hPa | 0 mm | - | - | - |
| 1778371527 | 25.56° C | 70% | 1009 hPa | 0 mm | - | - | - |
| 1778368824 | 27.22° C | 70% | 1008 hPa | 0 mm | - | - | - |
| 1778363161 | 29.44° C | 70% | 1009 hPa | 0 mm | - | - | - |
| 1778354535 | 27.22° C | 74% | 1010 hPa | 0 mm | - | - | - |
| 1778333430 | 26.67° C | 94% | 1009 hPa | 0 mm | - | - | - |
| 1778327766 | 23.33° C | 89% | 1011 hPa | 0 mm | - | - | - |
| 1778322234 | 22.78° C | 89% | 1009 hPa | 0 mm | - | - | - |
| 1778315801 | 22.78° C | 87% | 1009 hPa | 0 mm | - | - | - |
| 1778314000 | 23.33° C | 85% | 1010 hPa | 0 mm | - | - | - |
| 1778310265 | 25° C | 85% | 1010 hPa | 0 mm | - | - | - |
| 1778307433 | 26.11° C | 85% | 1010 hPa | 0 mm | - | - | - |
| 1778301511 | 22.78° C | 83% | 1011 hPa | 0 mm | - | - | - |
| 1778288643 | 25.56° C | 74% | 1010 hPa | 0 mm | - | - | - |
| 1778286842 | 26.67° C | 74% | 1010 hPa | 0 mm | - | - | - |
| 1778285941 | 27.22° C | 74% | 1009 hPa | 0 mm | - | - | - |
| 1778283108 | 28.33° C | 74% | 1009 hPa | 0 mm | - | - | - |
| 1778268439 | 31.67° C | 74% | 1009 hPa | 0 mm | - | - | - |
| 1778259944 | 30.56° C | 79% | 1012 hPa | 0 mm | - | - | - |
| 1778259044 | 27.78° C | 79% | 1012 hPa | 0 mm | - | - | - |
| 1778257242 | 28.89° C | 79% | 1012 hPa | 0 mm | - | - | - |
| 1778247337 | 26.67° C | 94% | 1012 hPa | 0 mm | - | - | - |
* Rain latest hour (hover to see other rain measurements)
** Current wind speed in m/s (hover to see current wind gust speed)